Weather in Mariinskiy Reyd

Russia / Khabarovsk Krai     51°42′16″N   140°12′10″E
temp.,
°C
wind,
m/s
gust,
m/s
humid.,
%
clouds,
%
prec.,
mm/h
press.,
hPa
HPBL,
m
27 february, sat
sat2701:00−19nw338698 0.0 102920
04:00−21nnw239892 0.0 102921
07:00−23n229732 0.0 103020
10:00−20ene119116 0.0 102944
13:00−16w12824 0.0 1028204
16:00−14sw13866 0.0 1025163
19:00−15sw2389100 0.0 102522
22:00−14ese2390100 0.0 102221
28 february, sun
sun2801:00−13ese3489100 0.0 1018100
04:00−12e2293100 0.3 101464
07:00−12ese1194100 0.3 101220
10:00−10wsw6138499 0.4 1010603
13:00−9nw578415 0.0 1011487
16:00−9n248450 0.0 1011201
19:00−11nnw3488100 0.1 101331
22:00−17n3486100 0.1 101522
1 march, mon
mon101:00−20nw238696 0.0 101620
04:00−22nw348571 0.0 101821
07:00−22w239260 0.0 102027
10:00−19wnw478352 0.0 1022236
13:00−16w467623 0.0 1022760
16:00−15wsw7108762 0.1 10231011
19:00−17wsw7137098 0.1 1024283
22:00−21sw458483 0.1 102538
2 march, tue
tue201:00−22wsw348396 0.0 102543
04:00−22wsw348098 0.1 102654
07:00−24sw2285100 0.0 102821
10:00−24wsw357970 0.0 1028180
13:00−20wsw69690 0.0 1027726
16:00−18wsw47729 0.0 1026482
19:00−22w457579 0.0 102722
22:00−24ssw337557 0.0 102820
3 march, wed
wed301:00−25sw23890 0.0 102620
04:00−28se01970 0.0 102619
07:00−28s12960 0.0 102619
10:00−25s11910 0.0 102571
13:00−21sw11880 0.0 1022197
16:00−16se238644 0.0 1019170
19:00−15ese3395100 0.3 101777
22:00−16e2284100 0.3 101520